Sedalia, MO

4:27 PM CDT on October 23, 2017 (GMT -0500)
Sedalia Memorial

Weather History for KDMO - December, 2012

Change the Weather History Date:

Saturday, December 15, 2012

  Actual Average Record
Temperature  
Mean Temperature 51 °F 35 °F  
Max Temperature 59 °F 43 °F 70 °F (1975)
Min Temperature 43 °F 26 °F -14 °F (1943)
Degree Days  
Heating Degree Days 14 30  
Month to date heating degree days 282 421  
Since 1 July heating degree days 1159 1266  
Cooling Degree Days 0 0  
Month to date cooling degree days 0 0  
Year to date cooling degree days 2111 1490  
Moisture  
Dew Point 44 °F    
Average Humidity 73    
Maximum Humidity 89    
Minimum Humidity 57    
Precipitation  
Precipitation 0.06 in 0.06 in 1.25 in (1971)
Month to date precipitation 0.49 1.05  
Year to date precipitation 29.91 39.84  
Sea Level Pressure  
Sea Level Pressure 29.67 in    
Wind  
Wind Speed 14 mph (SSW)    
Max Wind Speed 30 mph    
Max Gust Speed 40 mph    
Visibility 10 miles    
Events Rain    
T = Trace of Precipitation, MM = Missing Value Source: NWS Daily Summary

Daily Weather History Graph

Daily Weather History Graph

Search for Another Location

Airport or City:

Trip Planner

Search our weather history database for the weather conditions in past years. The results will help you decide how hot, cold, wet, or windy it might be!

Date:

Astronomy

Dec. 15, 2012 Rise Set
Actual Time 7:23 AM CST 4:52 PM CST
Civil Twilight 6:54 AM CST 5:22 PM CST
Nautical Twilight 6:20 AM CST 5:55 PM CST
Astronomical Twilight 5:48 AM CST 6:28 PM CST
Moon 9:18 AM CST (12/15) 7:55 PM CST (12/15)
Length of Visible Light 10h 28m
Length of Day
9h 28m
Waxing Crescent, 8% of the Moon is Illuminated
Dec 15
Waxing Crescent
Dec 19
First Quarter
Dec 28
Full
Jan 4
Last Quarter
Jan 11
New

Hourly Weather History & Observations

Time (CST) Temp. Windchill Dew Point Humidity Pressure Visibility Wind Dir Wind Speed Gust Speed Precip Events Conditions
12:02 AM 42.8 °F 34.8 °F 39.2 °F 87% 29.79 in 2.0 mi SSE 17.3 mph - 0.07 in Rain Heavy Rain
12:12 AM 42.8 °F 34.8 °F 41.0 °F 93% 29.78 in 4.0 mi SE 17.3 mph - 0.09 in Rain Light Rain
12:53 AM 43.0 °F 36.0 °F 41.0 °F 93% 29.77 in 10.0 mi SE 13.8 mph - 0.11 in   Overcast
1:05 AM 44.6 °F 42.2 °F 41.0 °F 87% 29.79 in 10.0 mi SSE 4.6 mph - 0.00 in Rain Light Rain
1:53 AM 44.1 °F 37.7 °F 42.1 °F 93% 29.75 in 10.0 mi ESE 12.7 mph - 0.01 in Rain Light Rain
2:53 AM 46.0 °F 39.0 °F 43.0 °F 89% 29.70 in 10.0 mi SE 17.3 mph - 0.00 in   Overcast
3:53 AM 46.9 °F - 43.0 °F 86% 29.64 in 10.0 mi SE 19.6 mph 27.6 mph N/A   Overcast
4:53 AM 50.0 °F - 46.0 °F 86% 29.61 in 10.0 mi South 21.9 mph 34.5 mph N/A   Overcast
5:38 AM 50.0 °F - 46.4 °F 87% 29.58 in 10.0 mi South 23.0 mph 32.2 mph N/A   Scattered Clouds
5:53 AM 50.0 °F - 46.0 °F 86% 29.58 in 10.0 mi South 19.6 mph - N/A   Scattered Clouds
6:53 AM 52.0 °F - 46.0 °F 80% 29.58 in 10.0 mi South 17.3 mph 27.6 mph N/A   Overcast
7:53 AM 53.1 °F - 46.0 °F 77% 29.58 in 10.0 mi South 20.7 mph 32.2 mph N/A   Overcast
8:53 AM 53.1 °F - 46.0 °F 77% 29.59 in 10.0 mi SSW 19.6 mph - N/A   Overcast
9:53 AM 54.0 °F - 43.0 °F 66% 29.60 in 10.0 mi SW 18.4 mph 29.9 mph N/A   Overcast
10:53 AM 54.0 °F - 43.0 °F 66% 29.62 in 10.0 mi SW 19.6 mph 29.9 mph N/A   Overcast
11:53 AM 57.0 °F - 44.1 °F 62% 29.61 in 10.0 mi WSW 21.9 mph 39.1 mph N/A   Clear
12:53 PM 57.0 °F - 44.1 °F 62% 29.60 in 10.0 mi WSW 19.6 mph 29.9 mph N/A   Scattered Clouds
1:53 PM 59.0 °F - 44.1 °F 58% 29.60 in 10.0 mi SW 19.6 mph 28.8 mph N/A   Partly Cloudy
2:53 PM 59.0 °F - 45.0 °F 60% 29.62 in 10.0 mi WSW 12.7 mph 20.7 mph N/A   Mostly Cloudy
3:53 PM 57.0 °F - 46.0 °F 67% 29.64 in 10.0 mi West 16.1 mph 23.0 mph N/A   Clear
4:53 PM 52.0 °F - 45.0 °F 77% 29.66 in 10.0 mi West 9.2 mph - N/A   Clear
5:53 PM 48.0 °F - 43.0 °F 83% 29.70 in 10.0 mi West 4.6 mph - N/A   Mostly Cloudy
6:53 PM 52.0 °F - 45.0 °F 77% 29.70 in 10.0 mi WSW 5.8 mph - N/A   Mostly Cloudy
7:53 PM 50.0 °F - 45.0 °F 83% 29.69 in 10.0 mi SW 4.6 mph - N/A   Overcast
8:53 PM 51.1 °F - 44.1 °F 77% 29.71 in 10.0 mi West 9.2 mph - N/A   Overcast
9:53 PM 48.9 °F - 43.0 °F 80% 29.72 in 10.0 mi West 6.9 mph - N/A   Mostly Cloudy
10:53 PM 46.0 °F 43.9 °F 42.1 °F 86% 29.73 in 10.0 mi West 4.6 mph - N/A   Clear
11:53 PM 44.1 °F 40.8 °F 41.0 °F 89% 29.74 in 9.0 mi SW 5.8 mph - N/A   Clear